Regional Weather Roundup
Issued by NWS

Home | Current Version | Previous Version | Graphics & Text | Print | Product List | Glossary Off
Versions: 1 2 3 4 5 6 7 8 9 10 11 12 13 14 15 16 17 18 19 20 21 22 23 24 25 26 27 28 29 30 31 32 33 34 35 36 37 38 39 40 41 42 43 44 45 46 47 48 49 50

000
ASUS43 KDMX 281301
RWRIA

WEATHER ROUNDUP FOR IOWA
NATIONAL WEATHER SERVICE DES MOINES IA
800 AM CDT FRI APR 28 2017

NOTE: "FAIR" INDICATES FEW OR NO CLOUDS BELOW 12,000 FEET WITH NO
SIGNIFICANT WEATHER AND/OR OBSTRUCTIONS TO VISIBILITY.

* - THESE STATIONS ARE NOT NWS STATIONS...THUS NOT UNDER NWS
QUALITY CONTROL.  THEY ALSO DO NOT REPORT WEATHER SUCH
AS PRECIPITATION OR FOG.

IAZ001>003-012>014-020>022-031>034-043>046-281400-
   NORTHWEST IOWA

CITY           SKY/WX    TMP DP  RH WIND       PRES   REMARKS
CARROLL *      CLOUDY    36  28  75 E12       29.87S WCI  27
CHEROKEE *     CLOUDY    32  30  91 NE3       29.88R
DENISON *      MIX PCPN  36  28  75 E12G18    29.87R WCI  27
LE MARS *      CLOUDY    36  28  75 NE5       29.88R WCI  32
ORANGE CITY *  CLOUDY    32  30  93 E5        29.87R WCI  27
SHELDON *      CLOUDY    32  28  86 CALM      29.87R
SIOUX CITY     CLOUDY    35  29  78 SE7       29.88R WCI  29
SPENCER        CLOUDY    30  27  88 CALM      29.88R
STORM LAKE *   CLOUDY    32  28  86 E9        29.86R WCI  24
$$

IAZ055>058-069>071-079>083-090>094-281400-
   SOUTHWEST IOWA

CITY           SKY/WX    TMP DP  RH WIND       PRES   REMARKS
ATLANTIC *     RAIN      37  34  87 NE12G18   29.83S WCI  30
AUDUBON *      LGT RAIN  36  30  80 E9        29.86R WCI  29
CLARINDA *     CLOUDY    41  39  93 NE13G18   29.79S FOG
COUNCIL BLFS * LGT SNOW  36  36 100 NE15G23   29.79S WCI  26
CRESTON *      LGT RAIN  39  36  87 NE18G25   29.80R WCI  30
HARLAN  *      LGT RAIN  36  34  93 NE10      29.86S WCI  28
LAMONI         LGT RAIN  41  37  86 NE16G23   29.76F
RED OAK *      LGT RAIN  39  37  93 NE13      29.79S WCI  32
SHENANDOAH *   MIX PCPN  41  39  93 NE18      29.77S
$$

IAZ047>049-059>061-072>074-084-281400-
   CENTRAL IOWA

CITY           SKY/WX    TMP DP  RH WIND       PRES   REMARKS
AMES           CLOUDY    36  29  75 E8        29.88R WCI  30
ANKENY *       CLOUDY    37  28  70 E10G20    29.89S WCI  30
BOONE *        CLOUDY    36  28  75 E16       29.87R WCI  26
CHARITON *     CLOUDY    41  34  75 NE16      29.80F
DES MOINES     CLOUDY    39  29  67 NE12      29.86S WCI  32
GRINNELL*      CLOUDY    36  30  77 E12G20    29.89R WCI  28
KNOXVILLE *    CLOUDY    39  32  75 NE14G20   29.84S WCI  31
MARSHALLTOWN   CLOUDY    35  29  78 E8        29.90R WCI  29
NEWTON *       CLOUDY    37  28  70 NE15      29.87S WCI  28
PELLA *        CLOUDY    38  31  74 NE7       29.88F WCI  33
PERRY *        CLOUDY    37  28  70 E13       29.86S WCI  29
$$

IAZ004>006-015-016-023>025-035-036-281400-
   NORTH CENTRAL IOWA

CITY           SKY/WX    TMP DP  RH WIND       PRES   REMARKS
ALGONA *       MOSUNNY   32  30  93 CALM      29.89R
CLARION *      CLOUDY    36  30  80 SE6       29.90R WCI  31
ESTHERVILLE    MOSUNNY   32  30  92 CALM      29.87R
FORT DODGE *   CLOUDY    34  27  75 E6        29.90R WCI  29
MASON CITY     CLOUDY    34  29  82 CALM      29.89R
FOREST CITY *    N/A     36  30  80 CALM      29.88R
WEBSTER CITY * CLOUDY    34  28  80 E7        29.87R WCI  28
IOWA FALLS *   CLOUDY    35  30  82 E6        29.91R HAZE    WCI  29
$$

IAZ007>011-017>019-026>030-037>042-050>054-066-281400-
   NORTHEAST IOWA

CITY           SKY/WX    TMP DP  RH WIND       PRES   REMARKS
CEDAR RAPIDS   MOSUNNY   37  30  75 E9        29.91R WCI  30
CHARLES CITY * MOSUNNY   36  30  80 CALM      29.89R
DECORAH *      SUNNY     36  27  69 CALM      29.88R
DUBUQUE        CLOUDY    35  29  78 E6        29.92R WCI  30
MONTICELLO *   CLOUDY    36  30  80 NE5       29.91R WCI  32
WATERLOO       MOSUNNY   34  28  79 E5        29.92R WCI  30
$$

IAZ064-065-067-068-078-281400-
   EAST CENTRAL IOWA

CITY           SKY/WX    TMP DP  RH WIND       PRES   REMARKS
DAVENPORT      CLOUDY    41  33  73 NE9       29.91R
IOWA CITY      CLOUDY    41  32  70 NE7       29.93R
MUSCATINE *    PTSUNNY   43  32  65 NE12      29.91S
QUAD CITIES    CLOUDY    44  34  67 E8        29.91R
$$

IAZ062-063-075>077-085>089-095>099-281400-
   SOUTHEAST IOWA

CITY           SKY/WX    TMP DP  RH WIND       PRES   REMARKS
BURLINGTON     CLOUDY    43  36  76 NE16      29.85F
FAIRFIELD *    CLOUDY    41  34  75 NE13      29.85F
FORT MADISON * CLOUDY    45  39  81 NE10      29.86R
KEOKUK *       CLOUDY    45  41  87 NE6       29.84R
OSKALOOSA *      N/A     40  33  78 NE16      29.87F WCI  31
OTTUMWA        CLOUDY    41  34  76 NE15      29.86S
WASHINGTON *   PTSUNNY   41  36  81 NE14      29.88F
$$

ABBREVIATIONS USED IN REMARKS
   TC - TEMPERATURES IN CELSIUS
  WCI - WIND CHILL INDEX
   HX - HEAT INDEX
  VSB - VISIBILITY
$$




USA.gov is the U.S. government's official web portal to all federal, state and local government web resources and services.